SL-8 DEB, 2934

Orbit data source: Space-Track

SL-8 DEB, 2934 is space debris in LEO originally from a launch on Mon, 15 Mar 1965 UTC launched from the Tyuratam Missile And Space Complex (TTMTR). Debris objects in space refer to the collection of defunct objects orbiting the Earth. Examples of debris include non-operational satellites, rocket bodies, and fragments generated from explosions, collisions, or faulty payload assembly.

Loading next visibility...
Identifier
2934, 1965-020EM
Orbit
LEO
Last TLE update
22 hours ago
Origin
Manufacturer
Unknown
Mission
Spacecraft
Bus & Motor
Unknown
Mass
Unknown
Launch date (UTC)
1965-03-15 (60 years ago)
Launch vehicle
Unknown
Launch site
Tyuratam Missile And Space Complex (TTMTR)
Object type
Payload
Rocket body
Debris
Shape & HBR
Unknown
Radar Cross Section
Small (<0.1 m²)

Expand to show TLE details & history

TLE from 22 hours ago
0 SL-8 DEB
1 02934U 65020EM  25186.98350481  .00000389  00000-0  25026-2 0  9998
2 02934  55.5951  35.6312 0358835 115.6776  30.9641 12.50840265658774
Epoch: 2025-07-05T23:36Z
TLE epoch observation values (Epoch: 2025-07-05T23:36:14.815Z)
Latitude
25.33213°
Longitude
-81.46116°
Altitude
1,223.777 km
Speed
7.355 km/s
True Right ascension
13h 07m 15s
True Declination
25° 12' 27"
Sunlit
Object was in daylight at epoch
Visualization orbit readout
Latitude
6.9644°
Longitude
119.58297°
Altitude
1,541.551 km
Speed
7.061 km/s
Apparent Right ascension
00h 49m 21s
Apparent Declination
-16° 19' 49"
Sunlit
Object is in daylight
Visualization observer readout
Local Sidereal Time
09:54:24
Azimuth
289.063° WNW
Elevation
-45.416°
Doppler factor
1
Orbital elements
Apogee altitude
1,742.159 km
Perigee altitude
1,179.577 km
Semi-major axis
7,839.005 km
Eccentricity
0.03588
Inclination
55.5951°
RAAN
35.6312°
Arg. of periapsis
115.6776°
True anomaly
Unknown
Mean anomaly
30.9641°
Eccentric anomaly
Unknown
Mean motion
3.12717 °/min
Orbital period
115.12 mins
BSTAR
0.0025026
Loading maneuver chart data...
Loading SW <> Apogee altitude chart data...
Loading historical data...
Loading historical data...
Loading historical data...
Loading historical data...
Loading historical data...
Loading historical data...
Loading historical data...

SL-8 DEB Visibility forecast

Observer location: undefined°, undefined°

Span
Click to sort rows by Start time (UTC) header in descending order
Start Az.
Max El. time (UTC)
Max El. Az.
Max El.
End time (UTC)
End Az.
13 mins2025-07-06 22:21:22.145Z323.012° NNW2025-07-06 22:27:22.145Z27.069° NE33.281°2025-07-06 22:34:22.145Z98.557° ESE
12 mins2025-07-07 00:22:22.145Z304.663° NW2025-07-07 00:27:22.145Z248.351° W40.62°2025-07-07 00:34:22.145Z154.604° SSE
14 mins2025-07-07 15:14:22.145Z194.083° SSW2025-07-07 15:21:22.145Z125.681° SE36.976°2025-07-07 15:28:22.145Z56.731° ENE
14 mins2025-07-07 17:14:22.145Z251.993° W2025-07-07 17:21:22.145Z320.388° NNW38.278°2025-07-07 17:28:22.145Z39.419° NE
11 mins2025-07-07 19:18:22.145Z303.196° NW2025-07-07 19:23:22.145Z349.526° N23.35°2025-07-07 19:29:22.145Z44.531° NE
10 mins2025-07-07 21:21:22.145Z329.266° NNW2025-07-07 21:26:22.145Z24.645° NE26.637°2025-07-07 21:31:22.145Z74.431° E
|